Temp
24 24 23 23 23 23 23 23 23 23 23 23 23 23 23 23 23 23 22 22 21 21 21 21 21 21 20 20 20 20 20 20 20 20 20 20 20 20 20 20 20 19 19 19 19 19 19 19 19 19 19 18 18 18 18 18 18 18 18 17 17 17 17 17 17 18 18 18 17 17 17 17 17 16 16 17 17 16 16 17 18 18 18 18 18
23 23 23 23 23 23 23 23 23 22 22 22 23 23 23 23 23 23 22 22 22 21 21 21 21 21 21 20 21 20 20 20 20 20 20 20 20 20 20 20 20 20 20 20 19 19 19 19 19 19 19 18 18 18 18 18 18 18 18 18 18 18 17 17 17 18 18 18 18 18 18 17 17 17 17 17 17 16 16 16 17 18 18 17 17
24 23 23 22 22 22 22 22 21 22 22 22 23 23 23 23 23 23 22 22 22 21 21 21 21 21 21 21 21 21 21 21 20 20 20 20 20 20 20 20 20 20 20 20 19 19 19 19 19 19 19 18 18 18 18 18 18 18 18 17 17 18 17 17 17 17 18 18 18 18 18 18 17 17 17 16 17 17 16 16 16 16 17 18 17
24 23 22 22 21 21 20 20 20 21 22 23 23 23 23 23 23 23 22 22 22 22 21 21 21 21 21 21 21 21 21 21 21 21 21 20 20 20 20 20 20 20 20 20 20 19 19 19 19 19 19 18 18 18 18 18 18 17 17 17 17 17 17 17 16 17 17 18 18 18 17 17 17 17 16 16 17 17 16 16 15 15 16 17 17
24 23 22 21 21 20 20 20 21 22 23 23 23 23 23 23 23 23 22 22 22 22 21 21 21 21 21 21 21 21 21 21 21 21 21 21 20 20 20 20 20 20 20 20 20 20 19 19 19 19 18 18 18 18 18 18 18 17 17 18 17 17 17 17 17 17 17 17 17 17 17 17 17 17 17 17 17 17 16 16 15 15 15 16 16
24 23 22 21 20 20 20 21 22 23 23 23 23 23 23 23 23 23 22 22 22 22 21 21 21 21 21 21 21 21 21 21 21 21 21 21 21 20 20 20 20 20 20 20 20 20 20 19 19 19 18 18 18 18 18 18 18 17 17 17 17 17 17 17 17 17 17 17 17 17 17 17 17 17 17 17 16 16 16 16 16 16 16 16 16
23 23 22 21 20 20 21 22 23 23 23 23 23 23 23 23 23 23 22 22 22 22 22 21 21 21 21 21 21 21 21 21 21 21 21 21 21 21 21 21 21 21 20 20 19 19 19 19 19 19 19 19 18 18 18 18 18 18 17 17 17 17 17 17 17 17 17 17 17 17 17 17 17 17 17 17 16 16 16 16 16 16 16 16 16
23 22 21 21 20 20 20 22 24 23 22 23 23 23 23 23 23 23 23 22 22 22 22 21 21 21 21 21 21 21 21 21 21 21 21 21 21 21 21 21 21 21 20 20 20 19 19 19 19 19 19 19 19 19 19 18 18 18 17 17 17 17 17 17 17 17 17 17 17 17 17 17 17 17 17 17 17 17 17 16 16 16 16 16 16
23 22 21 21 20 19 20 22 22 21 21 23 24 23 23 23 23 23 23 22 22 22 22 21 21 21 21 21 21 21 21 21 21 21 21 21 21 21 21 21 20 20 20 20 19 19 19 19 19 19 19 19 19 19 19 19 18 18 18 17 17 17 17 17 17 17 17 17 17 17 17 17 18 18 17 17 17 17 16 16 16 16 16 16 16
22 22 21 21 20 19 20 20 19 19 20 23 24 24 24 23 23 23 23 22 22 21 21 21 21 21 21 21 21 21 21 21 21 22 22 21 21 21 21 20 20 20 20 19 19 19 20 20 20 20 20 20 19 19 19 19 18 18 18 18 17 17 17 17 17 17 17 17 17 17 17 18 18 18 17 17 17 17 16 16 16 16 16 16 16
22 21 21 21 20 19 19 19 19 19 21 22 24 24 24 23 23 23 22 22 22 21 21 21 21 21 21 21 21 21 21 21 22 22 21 21 21 21 21 20 20 20 20 19 19 19 19 20 20 20 20 20 20 20 20 19 19 18 18 18 18 17 17 17 17 17 17 17 17 17 17 17 17 17 17 17 17 16 16 16 16 16 16 16 16
22 21 20 20 19 19 19 19 20 21 21 22 23 24 23 21 22 22 22 22 22 21 21 21 21 21 21 21 21 21 21 21 21 22 21 21 21 21 20 20 20 20 20 20 20 20 20 20 20 20 20 20 20 20 20 19 19 18 18 18 18 17 17 17 16 16 17 17 17 17 17 17 17 17 17 17 16 16 16 15 15 15 15 15 16
21 20 20 19 19 19 19 20 20 21 21 21 23 23 22 20 21 22 22 22 21 21 20 21 21 20 20 21 21 21 21 21 21 21 21 21 21 20 20 20 20 20 20 20 20 20 20 20 20 20 20 20 20 20 19 19 18 18 18 18 18 17 17 17 16 16 16 16 16 16 17 17 16 16 16 15 15 14 15 15 15 15 15 15 15
21 20 20 19 19 19 19 20 21 21 20 21 21 22 21 20 20 22 22 22 21 20 20 20 20 20 20 21 21 21 21 21 21 21 21 21 21 20 20 20 20 20 20 20 20 20 20 20 20 20 20 20 20 20 19 18 18 17 17 17 17 17 17 17 16 16 16 16 15 15 16 16 15 15 15 15 14 14 14 14 14 14 14 14 14
21 20 20 19 20 20 19 20 21 21 21 20 20 20 20 20 20 21 22 22 21 20 20 20 20 20 21 22 22 21 21 22 22 22 21 21 21 20 20 20 20 20 20 20 20 20 20 20 19 19 19 19 19 19 19 18 17 17 17 17 17 17 16 16 16 16 16 15 15 15 15 15 15 15 14 14 14 13 13 13 13 13 13 13 14
20 20 19 19 20 20 19 20 21 21 20 20 20 20 19 19 19 20 21 21 21 20 20 20 20 20 21 22 22 22 22 22 22 22 22 21 21 20 20 20 20 20 20 20 20 20 20 20 19 18 18 18 18 18 18 17 16 16 16 17 17 16 16 16 16 16 16 15 15 15 15 15 15 15 14 14 13 12 12 12 12 13 13 14 15
20 20 19 19 20 20 19 20 21 20 19 20 20 19 19 19 19 20 20 20 20 20 20 19 20 20 21 21 22 22 22 22 22 22 22 21 20 20 20 20 19 19 19 18 18 18 19 19 18 17 18 18 18 18 17 17 16 16 16 16 16 16 16 16 16 16 15 15 15 15 15 15 15 15 15 15 13 12 11 12 12 13 14 15 15
20 20 20 20 20 20 19 20 21 20 19 19 19 19 19 19 19 20 20 20 20 20 19 19 20 20 21 21 22 21 21 22 22 22 22 21 20 19 19 19 19 18 17 17 17 18 18 18 17 17 18 18 18 18 17 16 16 16 16 16 15 16 16 16 15 15 15 15 14 14 14 14 15 15 15 15 14 12 11 12 13 14 14 15 15
21 20 20 20 20 20 19 20 21 20 18 19 19 19 19 19 20 20 20 20 20 20 20 20 20 20 20 21 21 20 20 21 22 22 21 21 20 19 18 18 17 17 17 16 17 18 17 16 17 18 17 17 17 17 17 16 16 16 15 15 15 15 16 16 15 15 15 15 14 14 14 14 14 14 14 14 14 13 12 13 14 14 14 14 15
21 20 20 20 21 20 19 20 21 20 19 19 19 18 19 19 20 20 20 19 19 19 20 20 20 19 19 20 20 20 20 20 21 21 20 20 19 18 17 17 17 17 17 16 16 17 16 16 17 17 17 16 17 17 16 16 16 16 15 14 14 15 15 15 14 13 13 14 14 14 14 14 13 14 14 14 14 14 13 14 14 14 14 14 15
21 20 20 20 20 20 19 20 21 20 19 19 19 19 19 20 20 20 20 20 20 20 19 19 19 19 19 19 19 19 19 20 20 20 20 19 19 18 17 17 17 17 17 16 16 16 16 16 16 16 16 16 16 16 16 16 16 16 16 15 14 14 14 13 13 12 12 12 13 14 15 14 14 14 14 14 14 14 14 14 14 14 14 14 14
21 20 20 20 20 20 19 19 20 19 19 19 19 19 19 20 20 20 20 20 20 19 19 18 18 18 18 18 19 19 19 20 20 19 19 18 18 17 17 17 17 16 16 16 16 16 17 16 16 16 16 16 16 16 16 16 16 16 16 15 14 14 13 12 12 12 12 12 13 14 15 15 14 14 14 14 14 14 13 13 13 13 13 13 13
20 20 20 20 20 20 19 19 18 18 19 19 19 19 19 19 20 21 20 19 19 18 18 18 18 18 18 18 18 18 18 19 19 19 18 18 17 17 17 17 17 16 16 16 16 17 17 16 16 16 16 16 16 16 15 15 15 15 15 14 14 14 13 12 12 12 12 12 13 14 14 14 14 14 13 13 13 13 12 12 12 12 12 12 12
20 20 20 20 20 20 20 19 18 19 19 19 19 19 19 19 20 21 20 19 18 18 18 18 18 18 18 18 18 17 17 18 18 18 17 17 17 17 17 16 16 16 15 16 16 17 16 16 15 15 15 15 15 15 15 15 15 15 14 14 13 13 12 12 11 12 12 12 13 13 13 13 13 13 12 12 12 12 11 11 12 12 12 12 12
19 20 20 20 20 20 20 19 19 19 19 18 18 19 19 19 19 19 19 19 18 18 18 18 18 18 18 19 18 17 17 17 17 17 16 16 16 16 16 16 16 16 15 15 15 15 15 15 15 15 15 15 15 15 14 14 14 14 13 13 12 12 12 12 12 12 12 13 13 12 13 12 12 12 11 11 11 11 11 11 11 11 11 11 12
19 19 20 20 20 20 20 19 19 19 19 18 18 18 18 18 19 18 18 19 18 18 18 18 18 18 18 18 17 16 16 16 16 16 16 15 16 16 16 16 16 16 15 15 14 14 14 14 14 15 15 15 15 14 13 13 13 13 12 12 12 11 11 11 12 12 12 12 12 12 12 12 11 11 11 11 11 11 11 11 11 11 11 11 11
19 19 20 20 19 19 19 19 19 19 18 18 17 17 17 18 18 18 18 18 18 17 17 17 17 17 17 17 17 16 16 17 17 17 16 16 15 15 15 16 15 15 15 14 14 13 14 14 14 14 14 14 14 13 12 12 12 12 12 12 12 11 11 11 11 11 11 11 11 11 11 11 11 11 11 11 11 11 11 10 10 11 11 11 11
19 19 20 19 19 19 19 19 19 19 18 18 17 17 17 17 17 18 18 18 18 18 17 17 17 17 17 17 17 17 18 17 17 16 16 16 15 14 14 15 14 14 14 14 14 13 14 14 14 13 13 13 13 12 12 12 12 12 12 12 11 11 11 11 11 11 10 10 10 10 10 10 11 11 11 11 11 11 11 10 10 10 10 10 10
19 19 19 19 19 19 19 19 19 18 17 17 17 17 17 17 17 18 18 18 18 18 17 17 17 17 17 17 17 18 18 17 16 15 15 15 15 15 14 14 14 14 14 14 13 13 14 14 14 13 13 14 14 14 13 12 12 12 12 11 11 11 11 11 11 10 10 10 10 10 10 10 11 11 11 11 11 11 10 10 10 10 10 10 11
19 19 19 20 20 19 19 19 18 18 17 17 17 17 17 17 18 18 18 18 18 17 17 16 16 16 16 16 17 17 17 16 16 16 16 16 16 15 14 14 14 14 14 13 13 13 14 14 15 15 15 15 15 15 14 14 13 13 12 11 11 11 11 10 10 10 10 10 10 10 10 10 10 10 10 11 11 11 10 10 10 10 10 11 11
19 20 20 19 19 19 19 18 18 18 18 18 17 17 16 16 16 16 16 16 16 17 17 16 16 16 16 16 16 16 16 16 16 16 16 15 15 14 13 12 13 13 13 13 13 14 14 15 16 15 15 15 15 15 15 14 13 13 12 12 12 11 11 11 10 10 9 10 10 10 10 10 10 10 10 10 10 10 10 10 10 10 10 11 11
19 19 18 18 18 18 18 17 16 16 17 16 17 17 15 14 14 14 14 15 15 16 16 16 16 16 16 16 16 16 16 16 16 15 15 15 14 13 13 12 13 13 13 13 14 14 15 15 15 15 15 15 15 14 14 14 13 12 12 12 12 11 11 11 10 9 9 10 10 10 10 10 10 10 10 10 10 10 10 10 10 10 11 11 11
18 18 18 18 18 18 18 18 17 16 16 15 15 15 15 14 14 13 12 13 14 14 15 15 16 16 16 16 16 16 15 15 15 14 14 14 13 13 13 13 13 13 13 13 14 15 15 15 15 15 15 15 14 13 13 13 12 12 12 12 12 11 10 10 9 9 9 9 9 10 10 10 10 10 10 10 10 10 10 11 11 10 11 11 11
19 20 20 19 18 18 18 18 17 16 16 15 15 15 16 16 16 15 14 13 13 13 14 15 15 15 15 15 15 15 15 14 14 14 13 13 13 13 13 13 13 13 13 13 15 15 15 15 15 14 14 14 13 13 12 12 11 11 11 11 11 11 10 9 9 9 9 10 10 10 10 10 10 10 10 10 11 11 11 11 11 11 11 11 11
20 20 20 20 19 19 18 18 18 17 16 16 16 16 16 16 17 17 16 16 16 15 14 14 14 15 15 14 14 14 14 14 13 13 13 13 13 13 13 13 13 13 13 13 14 14 14 14 14 13 13 13 12 12 12 11 11 11 11 11 10 10 10 9 9 9 9 9 10 9 9 9 10 10 10 10 10 11 11 11 11 11 11 11 11
20 20 20 20 20 19 19 18 17 17 17 16 16 16 16 16 16 16 17 17 16 16 14 14 14 14 14 14 14 13 13 13 13 13 13 13 13 13 13 14 14 14 14 13 13 14 14 14 13 13 12 12 11 11 11 11 10 10 10 10 10 10 9 9 9 8 8 9 9 9 9 9 10 10 10 10 10 10 11 11 11 11 11 10 10
19 19 20 20 20 20 19 18 17 18 18 17 16 16 16 15 15 15 15 15 15 15 14 13 13 13 13 13 13 13 13 13 13 13 13 13 13 13 13 14 14 14 14 14 13 13 13 13 12 12 12 11 11 11 11 10 10 9 9 8 8 9 9 8 8 8 8 9 9 9 9 9 10 10 10 10 10 10 11 10 10 11 11 10 10
20 20 20 21 20 20 19 18 17 17 17 16 16 16 16 15 15 15 14 14 14 14 14 13 13 14 14 13 12 12 12 12 12 12 13 13 13 13 13 14 14 14 14 14 13 13 13 12 11 11 11 11 10 10 10 10 9 9 9 8 8 8 8 8 7 7 8 9 9 9 9 9 9 10 10 10 10 10 10 10 11 11 11 11 11
19 20 20 20 20 19 18 17 17 17 16 16 15 15 15 15 15 14 14 14 14 14 14 14 14 15 14 13 12 12 12 12 13 13 13 13 13 13 13 13 13 13 13 13 12 12 12 11 11 11 10 10 10 9 9 9 9 8 8 8 8 8 8 8 8 8 8 8 9 9 9 9 9 9 9 10 10 10 10 10 10 11 11 11 11
19 19 19 19 19 18 18 18 17 17 16 15 15 15 16 16 15 15 15 15 15 15 15 14 15 15 14 13 13 13 13 13 14 14 13 13 13 13 13 13 13 13 13 12 12 12 12 11 10 10 9 9 9 9 8 8 8 8 8 8 8 8 8 8 8 8 8 8 8 8 9 9 9 9 10 10 10 10 10 10 10 11 11 11 11
18 17 18 18 18 18 18 18 17 16 15 15 15 16 16 16 15 15 15 15 15 15 15 15 15 14 13 13 13 13 13 14 14 14 13 13 13 13 13 13 13 13 13 12 12 11 11 11 10 9 9 9 8 8 8 8 8 8 8 8 8 8 8 8 8 8 8 8 8 8 8 8 8 9 9 9 9 10 10 10 11 11 11 11 11
17 17 17 18 18 18 17 17 16 16 15 15 15 15 15 15 15 15 15 15 15 15 15 15 14 14 13 13 12 12 12 13 13 13 13 13 13 12 12 12 12 12 12 12 11 11 10 10 9 9 9 8 8 8 8 8 8 8 8 8 8 8 8 8 8 7 7 8 8 8 8 8 8 9 9 9 9 10 10 10 10 11 11 11 11
17 18 18 17 17 17 17 16 16 16 16 15 15 15 14 14 14 14 14 14 14 14 15 14 14 13 13 12 12 12 12 12 13 13 13 13 12 12 12 12 11 11 11 11 10 10 10 9 9 9 8 8 7 7 7 7 7 7 7 7 7 7 7 8 8 7 7 7 7 7 7 8 8 9 9 9 9 10 10 10 10 10 11 11 11
18 17 17 16 16 16 16 16 16 15 15 15 15 14 14 14 14 14 14 14 14 15 15 15 14 13 13 12 11 12 12 13 13 13 13 12 12 12 12 11 11 10 10 10 10 9 9 9 8 8 8 7 7 7 7 7 7 6 7 7 7 7 7 7 7 7 7 7 7 7 8 8 8 9 9 9 9 10 10 10 10 10 10 11 11
17 16 16 16 16 16 16 15 15 15 15 15 15 15 14 14 14 14 14 14 14 14 15 14 14 14 13 12 12 12 13 13 13 13 12 12 12 12 11 11 10 10 10 9 9 9 9 8 8 8 7 7 7 7 7 7 7 6 6 6 6 6 6 6 6 6 6 6 6 7 7 8 8 9 9 9 9 9 10 10 10 10 10 10 11
15 15 16 16 16 16 16 15 15 15 15 15 16 15 15 15 15 15 15 15 15 15 14 14 14 14 13 13 13 13 13 13 13 13 12 12 12 12 11 10 10 10 9 9 9 8 8 8 8 7 7 6 6 7 7 7 7 6 6 6 6 6 6 6 6 6 6 5 6 6 7 7 8 8 8 8 9 9 10 10 10 10 10 10 10
16 16 16 16 16 16 15 15 15 15 15 15 15 15 15 15 15 15 14 14 14 14 14 14 14 14 14 14 13 13 13 13 13 13 12 12 12 11 10 10 10 9 9 9 8 8 8 8 8 7 7 6 6 6 6 6 6 6 6 6 6 5 5 5 5 5 5 5 6 6 6 7 8 8 8 8 9 9 9 10 10 10 10 10 10
16 16 16 16 16 16 15 15 15 15 15 15 15 15 15 15 15 15 15 14 14 14 14 14 14 14 14 14 13 13 13 13 13 13 12 12 11 11 10 10 10 9 9 9 8 8 8 8 7 7 7 6 6 6 6 6 6 6 5 5 5 5 5 5 5 5 5 5 5 6 6 7 7 8 8 8 9 9 9 10 10 10 10 10 10
16 16 16 16 16 16 15 15 15 15 15 15 15 15 15 15 15 15 15 15 14 14 14 14 14 14 14 14 14 13 13 13 13 12 12 12 11 11 10 10 9 9 9 9 8 8 8 8 7 7 7 6 6 6 6 6 6 5 5 5 5 5 5 5 5 5 5 5 5 6 6 7 7 8 8 8 8 9 9 9 9 10 10 10 10
16 16 16 16 16 16 15 15 15 15 15 15 15 15 15 15 15 15 15 15 15 14 14 14 14 14 14 14 14 13 13 13 13 13 12 12 11 11 10 10 9 9 9 9 9 8 8 8 7 7 7 6 6 6 6 5 5 5 5 5 5 5 5 5 5 5 5 5 5 6 6 7 7 8 8 8 8 9 9 9 9 9 10 10 10
15 15 16 15 15 15 15 15 15 15 15 15 15 15 15 15 15 15 15 15 15 15 14 14 14 14 14 14 14 13 13 13 13 13 12 12 11 11 10 10 9 9 9 9 9 8 8 8 7 7 6 6 6 6 6 5 5 5 5 5 5 5 5 5 5 5 5 5 5 6 6 7 7 7 8 8 8 8 8 8 9 9 10 10 10
Height
769 772 774 776 780 783 787 790 793 796 799 803 806 808 810 811 812 814 815 815 816 817 819 820 821 823 824 825 826 827 828 829 830 831 831 832 832 833 833 833 833 833 832 832 833 833 833 833 832 832 831 831 831 831 831 831 831 831 831 830 830 830 829 828 826 823 823 824 823 821 820 820 819 818 818 817 817 815 814 813 812 811 810 809 807
765 767 770 773 776 780 785 789 792 796 800 804 806 808 810 810 811 813 814 815 816 817 818 819 820 821 823 824 824 825 826 826 828 829 829 830 831 831 831 831 831 831 831 831 831 831 831 831 830 830 829 829 829 829 829 829 829 829 829 829 828 828 827 826 825 822 820 821 821 820 818 818 816 815 815 815 814 813 812 810 809 808 807 806 804
760 763 767 770 775 780 785 790 795 799 802 804 806 808 809 810 811 812 813 814 815 815 816 817 818 819 820 821 822 823 824 824 826 826 827 829 829 830 830 829 829 829 829 829 829 829 829 829 828 828 827 827 827 827 827 827 827 827 827 827 826 826 826 825 824 822 819 818 819 818 817 816 814 813 813 812 811 811 809 808 806 805 804 802 801
757 760 764 770 777 784 790 796 800 802 802 802 802 804 806 808 810 811 812 812 812 813 814 815 816 817 818 818 819 820 821 822 823 824 825 826 827 827 827 827 827 827 827 827 827 827 827 827 826 826 826 826 825 825 825 825 825 825 825 825 825 824 823 823 822 821 818 816 816 816 815 814 813 811 810 810 809 808 807 805 804 802 801 799 798
754 757 763 771 780 788 793 797 798 796 796 798 799 801 804 806 808 809 810 810 810 811 812 812 813 813 814 815 816 817 819 820 821 821 822 823 824 824 825 825 824 824 824 824 824 824 824 824 824 825 824 824 824 823 823 823 823 823 823 823 822 822 821 820 819 819 817 815 814 813 813 812 811 809 808 807 806 805 804 802 801 800 798 797 795
752 757 765 773 779 782 783 784 785 785 788 794 798 801 803 805 806 807 807 807 807 808 809 810 810 810 811 812 813 815 816 817 818 819 820 820 821 821 821 821 821 822 822 822 822 822 822 822 822 822 822 822 821 821 821 821 820 820 821 820 820 819 818 818 817 816 815 814 812 811 810 809 808 807 806 805 804 803 801 800 799 798 796 795 793
751 757 764 767 766 765 766 770 774 778 784 791 796 799 801 803 803 803 804 804 805 805 806 807 808 808 809 810 812 812 813 815 816 816 817 817 817 818 818 818 818 819 819 819 819 819 819 820 820 820 820 819 819 819 818 818 818 818 818 818 817 817 816 815 815 814 813 812 810 809 808 807 806 805 804 803 802 801 799 797 795 794 794 792 790
750 754 757 756 756 758 761 765 768 773 780 786 790 793 795 798 799 800 800 801 801 802 803 805 806 806 807 808 809 810 811 812 813 813 814 814 814 815 815 815 816 816 816 816 816 817 817 817 817 817 817 816 816 816 816 815 815 815 815 815 815 815 814 813 812 812 811 810 808 807 806 805 804 803 802 801 800 798 797 795 793 792 791 790 788
745 748 750 752 755 758 761 763 767 774 780 783 784 786 787 790 794 796 796 797 798 799 800 802 803 804 804 805 807 808 808 809 810 811 811 812 812 813 813 813 814 814 814 814 814 814 814 814 814 814 814 813 813 813 813 812 812 812 812 812 812 812 811 811 810 809 809 808 806 805 804 802 801 800 799 798 797 795 794 793 791 789 788 786 785
740 744 746 749 752 755 760 766 773 780 781 779 779 779 778 781 785 789 791 792 794 795 797 799 800 801 802 802 804 805 805 806 807 808 809 810 810 810 810 811 812 812 812 812 812 811 812 812 811 811 811 811 810 810 809 809 809 809 809 809 809 809 809 809 808 807 806 805 804 802 801 799 798 797 796 796 794 793 791 790 788 786 785 782 780
737 740 742 745 749 754 761 767 772 775 773 771 772 772 774 776 779 783 787 789 791 792 794 796 796 797 798 799 800 801 802 802 804 805 806 807 807 807 808 808 809 810 810 809 809 809 809 809 808 808 808 808 807 806 806 805 805 805 806 806 806 806 805 805 805 804 804 802 801 800 798 797 796 795 794 793 792 790 789 787 786 784 782 779 776
736 738 741 744 748 753 758 761 763 764 764 764 766 768 772 775 778 781 784 787 788 789 790 792 792 793 794 796 797 797 798 799 801 802 803 804 805 805 805 806 806 807 807 806 806 806 806 806 805 805 805 804 804 803 802 802 802 802 803 803 803 802 802 802 802 801 801 799 798 797 796 794 793 793 792 790 789 787 786 784 783 781 779 777 774
734 737 741 744 747 751 754 756 758 760 761 762 764 766 769 773 775 778 781 784 785 786 787 788 789 790 792 793 794 794 795 796 798 799 800 801 802 802 803 803 803 804 804 803 804 803 803 803 802 802 802 801 800 800 800 799 799 800 800 800 799 799 798 798 798 798 798 797 795 794 793 792 791 790 789 788 787 785 783 781 780 778 775 774 771
733 736 739 743 745 748 751 754 756 756 757 760 763 764 766 769 771 774 778 781 782 783 784 786 786 788 789 791 791 791 792 794 795 796 797 798 799 800 800 801 801 801 800 801 801 800 800 800 799 799 799 798 797 798 798 798 797 798 798 797 796 796 795 794 794 794 794 793 792 791 790 790 789 788 787 786 785 783 781 779 777 775 772 770 768
730 733 736 740 743 746 749 751 752 752 754 759 762 763 764 767 770 773 775 778 779 780 782 783 784 786 787 788 789 789 789 791 792 792 793 795 796 797 797 798 798 798 798 798 798 797 797 797 796 796 796 796 796 796 796 796 796 795 795 794 794 793 792 792 791 791 791 790 789 788 788 787 786 785 784 783 782 781 779 777 774 772 769 767 764
727 730 733 736 739 742 745 746 747 750 753 757 759 760 763 765 768 771 773 775 777 778 780 781 782 784 785 786 786 786 786 787 788 789 790 791 793 794 794 794 795 795 795 795 795 794 794 794 793 793 793 793 793 793 794 794 794 793 792 792 791 791 790 789 788 788 788 787 787 786 785 784 783 782 781 780 778 777 776 774 772 769 767 763 760
724 727 729 732 736 739 741 743 746 749 750 752 754 755 757 760 764 768 771 772 774 776 777 778 780 782 783 783 784 784 783 784 785 785 786 788 789 791 791 791 791 791 792 792 792 791 791 791 791 791 791 790 790 790 791 792 791 791 790 789 789 788 787 786 785 784 784 784 783 783 782 781 780 778 777 775 774 774 773 771 769 766 763 760 756
721 724 726 729 733 736 739 741 743 744 745 747 749 751 753 756 761 765 767 769 771 773 775 777 778 779 780 780 781 781 780 781 782 783 784 785 786 788 788 788 788 789 788 789 789 788 788 787 788 789 788 787 787 787 788 788 788 788 788 787 786 785 784 784 784 783 782 781 781 780 779 778 776 774 773 772 771 771 770 768 766 763 760 757 753
718 721 724 728 732 735 737 739 739 740 742 744 745 748 751 754 758 762 765 767 769 772 774 775 776 776 777 777 778 778 779 779 779 780 781 783 784 784 785 785 785 786 786 786 785 784 784 783 783 784 783 783 783 784 784 785 785 785 785 784 784 783 783 783 782 782 781 780 779 778 777 776 774 772 770 769 768 767 766 765 763 761 758 755 751
716 720 723 726 731 733 734 735 736 738 740 743 744 746 749 753 756 760 762 765 769 771 773 774 774 774 775 775 775 776 777 777 777 778 779 780 781 781 782 782 782 783 783 783 782 781 780 779 779 779 780 780 781 781 781 782 782 782 782 782 781 781 781 781 781 780 779 778 777 776 775 774 772 770 768 767 765 764 763 762 760 758 756 752 749
716 719 722 726 729 730 730 732 734 736 738 741 743 745 747 751 754 757 760 764 767 770 771 773 773 773 773 773 773 774 774 775 775 776 777 777 778 778 778 779 779 780 780 780 779 778 777 777 777 777 777 779 779 779 779 779 779 779 779 779 779 779 779 779 778 778 777 776 775 774 773 772 770 768 766 765 763 762 760 759 757 755 753 750 746
716 719 722 724 727 728 729 731 733 735 737 740 742 744 746 750 753 755 759 762 765 768 770 771 771 770 770 771 771 772 773 773 774 774 774 775 775 775 776 776 777 777 777 777 776 775 776 776 775 775 776 777 777 777 777 777 777 776 776 776 777 777 776 776 776 776 775 774 773 772 771 769 768 766 764 762 761 759 758 756 754 751 748 746 743
716 718 721 724 726 728 730 731 733 735 737 739 740 742 745 748 750 753 757 760 763 766 768 768 768 767 768 769 771 771 771 771 772 772 772 772 772 772 773 774 774 775 775 775 774 774 774 774 774 774 774 774 774 775 775 775 774 774 774 774 774 774 774 774 774 774 773 772 771 770 768 767 766 764 762 760 758 756 755 752 750 747 744 741 739
715 718 720 723 725 727 729 730 732 734 736 737 739 740 743 746 748 751 755 758 762 764 764 765 765 766 767 769 770 770 770 770 770 770 770 770 770 770 771 771 771 772 772 772 772 772 772 772 772 771 772 772 772 773 773 772 772 772 772 772 772 772 772 773 773 772 771 770 769 768 766 765 763 761 760 758 755 753 751 748 746 743 739 736 734
715 718 720 722 723 725 727 729 731 733 734 735 737 739 742 744 746 750 753 756 759 761 762 763 764 766 767 769 769 769 768 768 769 768 768 768 768 768 768 769 769 769 769 770 770 770 770 770 769 770 770 770 770 770 770 770 770 769 770 770 771 771 771 771 771 771 769 768 767 765 764 762 761 759 757 755 753 750 748 745 742 739 735 732 729
715 717 719 721 722 724 726 728 730 732 733 735 737 741 744 745 746 750 753 755 757 759 761 762 764 766 768 768 768 767 766 766 767 767 767 766 766 766 766 766 766 766 766 766 767 767 767 768 768 768 769 769 768 768 768 768 768 768 769 769 770 770 770 770 770 769 768 766 765 764 762 761 759 757 755 752 750 747 745 743 740 736 732 729 725
715 717 719 720 722 724 725 727 729 731 733 735 738 741 744 746 748 751 753 754 756 758 760 761 763 765 766 766 765 764 764 764 765 766 766 765 765 765 764 764 764 764 764 764 765 765 766 766 767 767 767 767 766 766 766 767 767 768 768 768 769 769 768 768 767 766 765 765 764 762 761 759 757 755 753 750 748 745 743 740 737 734 730 727 723
713 716 718 720 722 724 726 727 729 731 733 734 736 739 742 746 748 750 751 752 754 756 757 759 761 762 763 763 762 761 762 762 763 763 764 764 764 763 763 763 763 763 764 764 764 765 765 765 766 766 766 766 766 766 767 767 767 767 767 767 767 767 766 766 765 765 764 763 762 761 759 757 755 753 751 748 746 743 741 738 735 732 728 725 721
713 715 718 720 722 724 726 728 729 731 732 733 736 739 741 743 745 746 747 749 750 752 754 756 759 760 760 760 759 759 760 760 760 761 761 761 761 761 761 762 763 763 763 763 763 764 764 765 765 765 765 765 765 766 766 766 766 766 766 766 766 766 765 764 764 763 763 762 761 759 758 756 754 752 749 747 744 741 739 736 733 729 726 723 719
713 716 718 720 722 724 726 728 730 731 732 733 735 737 739 740 741 743 745 747 748 749 751 754 756 757 757 757 756 757 757 758 758 758 759 759 759 760 760 761 761 762 762 762 763 763 763 763 763 763 763 763 763 764 764 765 765 766 765 765 765 765 764 763 763 762 761 760 759 758 756 755 752 750 748 745 742 739 737 734 731 728 724 721 717
713 715 717 719 721 723 726 729 730 731 731 732 733 734 736 738 740 742 745 746 747 748 750 752 753 754 754 755 755 755 756 756 756 757 758 758 758 759 759 760 760 761 761 761 762 762 762 762 761 761 761 761 761 762 763 764 764 765 764 764 764 764 763 763 762 761 760 759 758 757 755 753 751 749 747 744 741 738 735 732 729 726 723 719 716
713 715 717 719 720 722 725 728 731 733 733 733 733 733 735 738 741 743 744 745 746 747 749 750 751 752 753 754 754 754 754 755 756 757 757 757 758 758 758 759 759 760 760 760 760 760 760 760 760 760 760 761 761 762 763 763 764 764 764 764 763 763 762 762 761 760 759 758 757 755 754 752 750 748 746 743 740 737 734 731 728 725 721 718 714
713 715 717 719 721 722 722 724 729 733 734 734 735 735 736 738 739 741 742 743 745 747 748 748 750 751 752 753 753 753 754 755 756 756 756 756 757 757 757 758 758 758 759 759 759 759 759 759 759 759 760 761 761 762 763 763 763 763 763 763 762 762 761 760 759 759 758 757 756 754 753 751 749 747 744 742 739 736 733 730 727 723 720 716 712
713 714 715 718 720 721 721 723 727 731 733 733 734 735 736 736 737 738 741 743 745 746 747 748 749 750 751 751 752 753 754 755 755 755 755 756 756 756 757 757 757 758 758 758 758 758 758 758 759 759 760 761 761 762 762 762 762 762 762 762 762 761 760 759 759 758 757 756 755 753 752 750 748 746 744 741 738 736 733 730 726 723 719 716 712
713 714 715 717 719 720 721 724 727 729 731 731 732 733 735 736 737 738 739 741 743 745 746 748 748 749 749 750 751 753 753 754 754 755 755 755 756 756 756 757 757 757 757 758 758 758 758 758 758 759 760 760 761 761 761 762 762 762 761 761 761 760 759 759 758 758 757 755 754 753 751 750 747 745 743 740 738 735 732 729 726 723 719 716 712
714 715 716 717 719 720 722 724 726 727 728 729 731 732 734 735 736 737 738 739 741 743 745 746 746 747 749 750 751 752 752 753 753 754 755 755 755 756 756 756 756 757 757 758 758 758 758 758 759 759 760 760 761 761 761 761 761 761 761 761 760 759 759 758 758 757 756 755 754 752 751 749 747 745 742 740 737 735 732 729 726 722 719 716 712
715 716 716 717 718 719 720 722 723 725 726 728 730 731 733 734 735 736 737 739 740 741 743 744 745 747 748 749 750 750 751 752 753 754 754 755 755 756 756 756 756 756 757 757 757 758 758 758 759 759 759 760 760 760 760 761 761 760 760 760 759 759 758 758 757 756 756 754 753 752 750 748 746 744 742 739 737 734 731 729 725 722 719 716 712
715 715 716 717 718 718 719 720 722 723 725 727 729 731 732 733 735 736 737 738 739 741 742 744 745 747 748 748 749 750 750 751 752 753 754 754 755 755 756 756 756 756 756 757 757 757 758 758 758 759 759 760 760 760 760 760 760 760 759 759 758 758 757 757 756 756 755 754 753 751 750 748 746 744 741 739 736 734 731 728 725 722 719 715 712
714 714 715 716 717 718 719 721 722 724 726 727 729 730 731 733 735 736 737 739 740 741 742 744 745 746 746 747 748 749 750 751 752 753 753 754 754 755 755 755 756 756 756 756 757 757 757 758 758 759 759 759 760 760 760 759 759 759 758 758 758 758 757 757 756 756 755 754 752 751 749 747 745 743 741 739 736 734 731 728 725 722 719 716 713
713 714 715 716 718 719 721 722 723 725 726 727 729 731 732 733 735 736 737 738 739 741 742 743 744 745 745 746 748 749 750 750 751 752 752 753 753 754 754 754 755 755 755 756 756 756 757 757 758 758 759 759 759 759 759 759 758 758 758 758 758 757 757 756 756 755 754 753 752 750 749 747 745 743 741 739 736 734 731 728 726 723 720 716 713
714 715 716 717 718 720 721 722 723 724 726 728 729 731 732 733 734 735 736 737 739 740 741 742 743 744 744 745 747 748 749 750 750 751 751 752 752 753 753 753 754 754 755 755 755 756 756 757 757 758 758 758 758 758 758 758 757 757 757 757 757 757 757 756 756 755 754 753 752 750 748 747 745 742 740 738 736 734 731 729 726 723 720 717 714
714 715 716 717 718 719 721 722 723 725 726 728 729 731 732 733 734 736 737 737 739 740 740 741 742 743 744 745 746 747 748 749 750 750 750 751 751 751 752 752 753 753 754 755 755 756 756 756 757 757 758 758 758 757 757 757 757 757 757 757 757 757 756 756 755 755 754 753 752 750 748 746 744 742 740 738 736 734 731 729 726 724 720 717 715
713 714 716 717 718 719 721 723 724 726 727 729 730 731 733 734 735 736 737 738 739 739 740 741 742 743 744 745 745 746 748 748 748 749 749 750 750 750 751 752 752 752 753 754 754 755 756 756 757 757 757 757 757 757 757 756 756 756 757 757 756 756 756 755 755 754 754 753 751 749 748 746 744 742 740 738 736 734 732 729 727 724 721 718 715
713 715 717 717 718 720 722 723 725 727 728 729 730 732 733 734 736 736 737 738 739 739 739 740 742 743 744 744 745 746 747 747 747 748 748 749 749 750 750 751 751 752 753 753 754 755 755 756 756 756 756 756 756 756 756 755 755 756 756 756 756 756 756 755 755 754 753 752 751 749 747 746 744 742 740 738 736 734 732 730 728 725 722 719 716
713 716 717 718 719 721 722 724 726 727 728 729 730 731 733 734 735 736 737 737 738 739 739 740 741 742 743 744 744 745 746 746 747 747 748 748 749 749 749 750 751 751 752 753 753 754 755 755 756 756 756 756 755 755 755 755 755 755 755 755 756 755 755 754 754 753 753 752 750 749 747 746 744 742 741 739 737 735 733 731 728 726 723 720 718
714 716 718 719 720 721 723 725 726 727 728 729 730 730 732 733 734 735 736 737 737 738 739 740 741 742 743 743 744 744 745 745 746 746 747 747 748 748 749 749 750 751 752 752 753 753 754 755 755 755 755 755 755 755 755 754 754 754 754 754 754 754 754 754 753 753 752 751 750 749 748 746 744 743 741 739 737 736 733 731 729 727 724 722 719
715 717 719 719 720 722 724 725 726 727 728 729 730 731 732 733 734 736 736 737 738 738 739 740 741 741 742 742 743 743 744 744 745 745 746 746 746 747 748 748 749 750 751 751 752 753 753 754 754 754 755 754 754 754 754 754 754 754 754 754 754 754 753 753 753 752 752 751 750 748 747 746 745 743 742 740 738 736 734 732 730 728 726 723 721
716 717 718 719 721 723 724 725 726 728 729 730 731 732 733 734 735 736 736 737 738 738 739 740 740 741 741 741 742 742 743 743 743 744 744 745 745 746 746 747 748 749 750 750 751 752 753 753 753 753 754 754 754 754 754 754 754 754 754 753 753 753 752 752 752 752 751 750 749 748 747 746 745 744 742 740 739 737 735 733 731 729 727 725 723
716 717 718 720 721 723 724 725 727 728 729 730 731 732 733 734 734 735 736 736 737 738 738 739 739 740 740 740 740 741 741 741 741 742 743 743 744 744 745 746 747 748 749 749 750 751 752 752 752 753 753 753 754 754 754 754 754 754 753 753 753 752 752 751 751 751 750 750 749 748 747 746 745 744 742 741 739 738 736 734 732 730 729 727 725
716 718 719 721 722 723 724 726 727 728 729 730 731 732 733 733 734 734 735 736 736 737 737 737 738 738 738 738 739 739 739 739 740 740 741 741 742 743 743 744 745 746 747 748 749 750 751 751 751 752 752 753 753 754 754 754 754 754 753 753 752 752 751 751 750 750 750 749 749 748 747 746 745 744 743 741 740 738 737 735 733 732 730 728 727
717 718 719 721 722 723 725 726 727 728 729 729 730 731 732 732 733 733 734 734 735 735 735 736 736 736 736 736 736 737 737 737 737 738 738 739 740 740 741 742 743 744 746 747 747 748 749 750 750 751 752 752 752 753 753 753 753 753 753 752 752 751 751 750 749 749 749 749 748 748 747 746 745 744 743 742 740 739 737 736 734 733 731 730 728
Wind_Speed
39 40 39 40 39 38 37 36 35 33 30 27 25 25 25 25 25 23 21 21 20 20 19 18 18 17 17 16 15 14 13 13 12 12 12 12 12 12 12 13 13 13 12 12 13 15 16 16 15 15 14 12 11 11 11 11 13 14 15 15 16 15 15 15 14 15 16 16 17 19 20 19 19 16 15 16 17 19 22 22 21 21 21 21 22
39 40 39 40 39 38 37 36 34 31 27 25 24 24 25 25 25 23 21 21 20 19 19 19 18 18 18 17 16 15 15 14 14 14 14 14 14 14 14 15 15 15 14 14 15 15 16 16 16 16 15 15 13 13 12 11 12 13 13 14 16 16 16 17 16 17 18 17 17 19 19 19 20 18 16 17 17 18 19 20 21 21 21 21 21
38 41 39 38 37 36 34 31 28 26 24 24 23 24 25 25 24 22 21 21 20 20 20 20 19 19 19 19 17 17 16 16 15 15 16 16 16 17 17 18 18 17 16 16 15 15 15 15 15 15 15 15 14 13 12 11 11 12 13 13 15 16 16 16 16 17 19 19 18 18 19 19 20 20 18 18 18 19 18 18 19 21 22 23 22
32 38 38 34 31 26 20 18 20 23 25 24 24 26 27 26 24 22 22 21 20 21 21 21 20 20 21 21 20 19 19 18 17 17 18 19 19 20 20 21 21 21 19 18 17 15 14 14 14 14 14 14 14 13 12 12 11 11 12 13 14 15 15 15 15 16 17 19 19 18 18 19 20 19 19 19 19 18 16 16 17 20 22 23 22
27 34 32 24 19 16 15 18 23 27 29 27 26 28 28 27 24 22 22 22 21 22 22 22 22 22 23 23 22 22 21 20 19 19 20 21 21 22 22 22 22 22 22 21 20 18 16 15 14 14 14 14 14 13 12 12 11 10 11 12 13 13 14 14 15 15 15 18 21 20 18 18 19 19 19 20 20 18 16 16 17 19 21 22 22
24 26 21 19 22 22 25 32 34 33 33 30 28 29 28 26 24 23 23 23 22 22 23 24 25 24 24 24 24 24 22 22 21 21 22 22 23 23 23 22 21 21 21 21 21 21 19 17 17 16 15 15 15 14 13 12 11 11 11 12 13 13 14 14 14 14 15 16 19 20 18 17 18 18 17 18 19 20 19 19 18 18 19 21 21
19 19 20 24 30 35 39 41 40 38 36 30 28 29 28 26 26 25 25 25 24 24 25 26 26 26 25 25 25 25 23 23 23 22 23 24 24 23 21 20 20 20 21 21 20 20 21 20 20 19 18 18 17 17 15 13 12 12 12 12 12 13 14 14 14 14 14 15 17 18 18 17 17 17 17 17 18 20 20 19 19 19 19 20 22
20 21 25 31 37 39 40 42 43 41 37 32 29 29 29 29 28 27 27 27 26 26 27 27 27 27 26 26 26 25 24 24 24 24 24 23 22 21 20 18 18 19 20 20 20 20 21 22 22 21 20 19 19 18 17 15 13 13 13 12 12 13 14 14 14 13 13 14 16 17 17 18 18 18 17 17 18 19 19 19 21 22 22 22 23
24 25 29 33 35 36 39 42 41 37 36 34 31 31 31 32 31 30 29 28 29 29 28 27 27 27 27 27 26 25 25 25 24 23 21 20 20 20 19 17 17 18 19 18 19 20 21 21 20 20 20 19 19 19 18 18 17 16 15 14 13 13 14 14 14 14 14 14 15 16 16 17 18 18 17 17 18 20 20 20 21 22 23 24 24
27 26 30 34 35 37 38 35 29 29 34 36 35 35 37 36 34 33 32 31 31 31 29 28 28 28 28 27 26 26 26 25 24 21 20 20 20 20 19 17 16 17 18 17 17 18 19 19 20 19 19 20 20 20 20 20 20 20 19 17 15 15 15 15 15 15 15 15 15 16 16 17 18 19 18 18 19 20 19 19 20 21 23 23 23
27 28 33 36 36 36 33 29 27 32 40 40 39 41 41 38 36 34 33 32 33 32 30 29 29 29 28 27 27 27 26 25 23 21 20 20 20 20 19 18 17 18 19 18 18 17 17 18 19 19 20 21 21 22 22 22 21 22 21 21 20 19 18 17 17 17 17 16 16 17 17 18 20 19 19 19 20 20 20 19 21 22 22 21 19
26 30 33 32 33 34 34 34 36 42 45 42 42 44 41 37 35 34 33 33 33 32 31 30 30 28 27 27 28 28 27 25 22 22 22 21 21 21 21 20 20 20 20 20 20 19 19 19 21 21 22 23 23 23 22 22 21 22 21 21 22 22 22 21 19 18 18 17 18 18 18 20 21 19 19 20 20 21 22 22 21 22 23 22 21
28 30 28 26 30 33 36 39 41 44 44 42 42 42 38 35 35 35 34 34 34 33 31 31 30 29 27 27 27 29 28 25 23 22 23 22 21 22 23 22 22 22 22 22 23 23 22 22 22 23 24 24 24 22 21 21 21 21 21 21 23 24 24 24 23 21 20 18 17 19 20 21 21 20 20 21 20 20 21 21 21 23 24 24 24
29 30 26 26 30 32 35 40 42 44 45 41 38 38 36 35 35 35 35 33 33 32 31 31 30 29 28 26 26 28 28 26 24 23 24 23 22 23 24 25 25 25 25 25 25 25 26 25 25 26 25 25 24 21 19 19 18 19 19 20 21 22 23 23 22 21 21 20 19 20 21 20 20 21 21 20 19 19 20 21 22 24 26 25 26
30 30 27 27 30 31 34 40 43 44 41 36 33 34 34 33 33 33 34 34 33 32 30 29 28 28 27 25 24 27 29 27 25 24 24 25 23 24 25 26 27 27 27 27 27 28 27 26 26 24 23 23 21 19 18 17 17 17 18 18 19 19 18 18 17 17 18 19 18 18 19 20 21 22 21 20 19 19 19 20 21 23 25 25 25
27 28 27 29 31 31 34 41 44 40 36 33 32 33 32 31 31 31 32 32 31 30 29 28 27 27 27 26 25 28 29 28 25 25 26 26 25 25 26 27 28 28 28 27 27 26 26 26 25 22 21 20 19 18 18 18 16 16 17 19 19 18 17 18 20 20 18 18 18 19 20 22 23 23 23 23 21 17 16 18 19 20 22 22 22
25 27 28 29 31 31 36 42 43 38 34 32 32 31 31 31 30 29 29 28 27 28 27 26 26 27 27 27 28 30 30 27 25 25 26 26 25 25 26 28 28 28 26 23 21 22 24 24 22 19 20 20 19 19 19 18 16 16 18 18 17 18 17 17 20 21 18 16 19 20 21 22 22 23 23 22 19 15 14 17 18 19 20 18 18
25 28 28 29 30 31 36 42 43 39 34 32 30 28 28 31 31 29 28 27 26 26 24 23 25 28 28 29 30 30 30 28 25 24 24 24 24 23 25 26 25 23 21 20 21 23 24 22 19 20 24 23 20 19 18 17 17 18 18 16 15 17 16 13 14 16 15 16 17 17 18 19 21 23 22 21 19 16 14 16 18 19 20 18 18
27 28 26 27 30 30 34 42 44 37 30 28 29 27 26 29 31 30 29 27 24 22 21 22 26 28 29 30 29 29 29 28 26 25 24 24 23 22 22 21 19 17 16 20 25 25 24 22 21 22 26 25 21 18 18 17 18 18 16 13 12 14 14 13 14 15 14 15 15 15 16 17 18 19 19 19 19 17 14 16 18 20 20 20 22
27 27 24 25 28 30 36 44 44 35 27 25 25 25 27 29 29 27 26 22 20 20 21 24 26 26 26 27 26 25 26 27 26 25 23 23 22 19 18 17 16 16 16 19 22 21 20 21 21 20 21 21 18 17 17 17 17 16 16 14 12 13 13 13 13 13 12 14 14 14 16 17 16 15 15 16 16 15 15 17 18 20 20 22 24
24 23 22 24 27 29 36 44 44 37 29 23 20 22 27 30 28 25 23 21 21 22 22 22 22 21 21 20 20 22 23 24 24 23 21 20 19 17 16 17 16 15 14 15 16 15 14 16 17 17 18 18 16 15 16 16 15 16 17 16 14 14 15 14 12 11 11 12 12 14 17 17 15 13 13 15 14 14 16 16 17 19 20 21 23
20 20 21 23 25 27 32 39 40 33 25 21 20 22 27 29 27 24 22 20 20 20 20 21 21 19 18 17 18 20 22 21 19 19 17 16 16 16 16 17 16 14 13 14 13 12 12 11 12 14 15 15 14 14 14 15 15 16 18 18 17 18 18 15 11 9 10 11 12 15 17 17 16 15 14 15 15 14 16 17 18 20 20 21 22
18 18 19 21 23 26 27 29 31 26 21 21 22 23 26 29 26 23 21 19 17 18 19 20 20 18 16 14 13 14 16 16 15 14 13 13 14 15 14 15 15 13 12 12 12 11 10 11 13 15 14 11 11 11 12 13 14 15 17 17 17 18 16 12 8 8 10 11 12 14 15 15 17 16 14 14 15 17 19 20 21 22 22 23 23
17 17 18 20 22 25 24 24 24 22 21 22 23 24 26 26 24 24 23 21 19 19 19 18 16 14 12 12 10 9 10 11 10 9 9 9 10 11 11 13 13 12 11 11 11 11 11 11 12 12 10 8 9 10 10 11 13 15 15 14 12 11 9 7 7 8 10 11 12 13 13 13 14 14 14 16 19 22 22 21 21 23 24 23 24
16 17 18 19 20 22 23 23 21 21 22 23 23 23 24 23 23 24 23 21 20 18 15 14 12 11 11 11 9 7 7 6 5 5 5 6 7 7 9 11 11 12 12 11 11 12 12 12 10 9 8 9 9 10 10 11 12 12 10 7 6 6 6 7 8 9 11 11 11 11 11 11 12 14 17 20 22 23 21 19 20 23 23 23 24
15 16 17 18 18 19 21 21 20 20 22 21 19 19 21 20 21 21 21 20 18 15 12 9 8 9 10 10 8 6 5 3 3 3 3 3 4 5 7 9 11 12 12 11 12 12 11 9 8 7 8 9 9 8 7 7 6 5 4 4 4 5 5 7 8 8 9 10 9 10 12 12 14 17 20 21 21 21 19 17 19 21 21 22 23
14 15 15 16 17 18 18 18 18 18 17 16 16 18 19 18 17 17 17 15 12 9 8 8 8 10 11 9 7 6 4 3 2 2 2 3 3 4 5 7 8 8 8 7 7 7 7 7 7 7 7 7 6 4 2 2 1 1 3 3 4 5 6 7 8 8 8 9 9 11 12 13 15 17 18 17 18 20 19 17 18 20 20 21 22
13 13 14 14 15 15 15 15 16 15 13 13 15 16 15 15 15 15 14 12 10 10 11 11 11 11 10 7 5 3 2 2 2 1 2 3 3 4 5 5 4 4 3 4 5 5 5 6 5 5 4 3 1 1 2 3 2 3 4 4 5 6 7 7 7 7 8 9 10 11 12 13 14 15 16 16 18 19 19 17 18 19 19 20 21
12 12 13 12 12 13 13 13 13 12 12 14 16 15 14 14 13 12 13 13 14 15 14 12 10 9 6 4 3 2 2 2 1 2 4 4 4 5 4 3 3 4 4 4 5 5 5 5 5 5 3 2 2 2 3 3 3 4 4 4 4 4 5 5 5 6 7 8 9 10 11 13 14 15 15 16 17 19 19 18 19 19 19 20 21
11 10 11 10 10 11 11 12 13 14 16 18 19 17 14 12 12 12 14 15 15 14 12 9 8 6 4 3 2 2 2 2 3 4 5 5 5 5 3 3 4 4 5 4 4 5 5 5 5 5 3 3 3 3 3 4 4 4 3 3 3 3 4 4 4 5 7 8 9 10 11 12 14 14 15 16 18 19 19 18 18 18 18 20 22
9 9 9 9 9 8 7 9 13 17 18 19 19 18 15 12 11 12 13 12 11 10 9 7 5 4 3 3 2 2 1 2 4 4 5 4 3 2 2 2 2 4 6 5 5 4 4 4 4 3 3 3 3 3 4 4 3 2 2 2 3 3 4 4 5 6 8 8 9 10 11 12 13 14 15 16 17 19 18 17 17 16 17 19 20
12 12 11 10 9 9 9 9 10 13 14 14 15 17 18 15 12 11 10 8 7 7 7 6 5 4 3 3 2 2 1 2 2 2 2 1 1 1 2 2 3 5 6 5 5 4 4 4 3 3 3 3 2 2 2 1 1 1 2 3 3 4 4 5 7 8 8 8 9 10 11 12 13 14 15 15 16 17 17 17 16 16 17 19 20
19 19 17 14 13 13 14 12 11 12 13 12 13 15 16 15 12 11 10 9 8 8 7 6 6 5 4 3 2 2 1 1 1 1 1 1 0 1 2 3 4 5 5 5 5 5 3 3 3 2 3 3 2 2 1 0 0 2 2 3 4 5 5 7 9 8 7 8 9 10 10 11 12 13 14 15 15 15 16 16 16 16 16 18 21
23 22 22 20 16 13 12 12 12 14 13 11 10 11 10 9 10 12 12 11 10 9 8 7 7 6 5 4 2 1 1 2 2 2 1 1 1 2 3 3 4 5 4 4 4 4 3 3 2 2 2 2 1 2 1 0 1 2 3 4 5 5 5 7 7 6 7 8 8 9 10 11 12 12 14 14 15 15 15 15 15 16 15 17 20
21 21 23 21 14 9 9 10 12 13 12 8 7 7 7 7 9 10 10 9 9 9 9 9 9 7 5 4 2 2 2 3 2 2 1 0 2 3 3 3 3 3 4 4 4 3 3 3 2 3 2 2 2 1 0 0 1 3 3 4 5 5 5 6 5 6 8 8 8 9 10 11 11 12 13 14 15 15 15 15 15 16 15 16 19
17 16 18 17 12 8 8 9 9 10 10 8 8 8 8 8 9 9 8 8 9 9 9 10 10 8 5 3 2 3 3 2 2 2 1 1 1 1 2 2 2 2 3 3 4 3 3 3 3 3 3 2 2 1 0 1 2 3 4 5 5 5 5 5 5 6 7 7 8 9 10 10 11 12 13 13 14 14 15 15 15 16 16 16 17
12 11 13 14 12 9 8 8 8 9 9 9 9 8 8 7 7 7 7 7 8 8 8 10 10 8 4 3 4 3 3 3 2 3 2 2 3 2 1 2 2 2 2 3 4 4 4 3 3 3 2 2 1 0 1 1 2 3 4 5 5 4 4 4 5 6 7 7 8 9 9 10 11 12 13 13 14 14 15 16 15 15 16 17 16
11 13 13 12 11 10 10 10 10 10 9 9 8 7 7 7 6 6 6 7 8 7 7 9 9 7 5 5 5 5 4 4 3 3 4 3 3 2 2 2 2 2 2 3 4 4 4 4 3 3 2 1 1 0 1 2 2 3 3 3 3 3 4 4 4 5 6 7 7 8 9 10 11 12 12 13 14 15 16 16 16 16 16 16 16
11 13 13 12 12 13 12 12 11 9 8 8 7 6 7 6 6 6 6 7 7 6 6 8 8 7 6 7 7 6 5 5 4 4 4 4 3 3 2 2 2 2 3 4 4 4 4 4 4 3 3 2 1 1 2 2 2 3 3 2 2 2 3 3 4 5 6 7 8 8 9 10 11 12 12 12 13 15 16 16 16 16 15 15 16
11 12 12 13 13 13 11 11 11 9 8 7 6 6 6 6 6 6 6 6 6 6 6 7 8 7 7 8 8 7 6 5 4 4 4 4 4 3 3 2 3 3 3 4 5 4 4 4 4 4 3 2 1 1 2 2 2 2 2 2 2 2 2 3 4 5 6 7 8 8 9 10 11 11 12 12 13 15 16 16 16 16 15 15 16
10 12 13 14 13 12 11 10 10 9 8 7 7 6 6 6 6 6 6 6 6 6 6 6 6 7 7 8 7 7 6 5 5 5 4 4 3 3 3 3 3 3 4 4 5 5 4 4 4 4 3 2 1 1 1 2 1 1 1 1 1 2 2 2 3 4 5 7 8 8 9 10 11 11 12 13 13 14 15 15 16 16 16 15 15
12 13 13 13 12 11 10 9 9 9 8 7 6 6 5 5 5 5 6 6 6 6 6 6 6 6 7 7 6 6 6 5 5 4 3 3 3 3 3 3 3 4 4 4 5 5 5 5 5 4 3 2 1 1 1 1 1 1 2 2 1 2 2 3 3 4 5 6 7 8 9 10 11 11 11 12 13 13 14 15 16 16 16 16 15
13 12 12 11 10 9 9 9 9 8 6 6 6 5 5 5 5 6 7 7 7 6 6 5 5 6 7 8 8 7 6 5 4 3 3 2 2 2 3 3 4 4 4 4 5 5 5 5 5 4 3 3 2 1 1 2 2 2 2 2 2 2 2 3 3 4 5 6 7 8 9 9 10 11 11 12 13 13 13 14 16 16 16 16 15
12 12 11 11 10 9 9 9 8 6 6 7 7 6 6 6 6 7 7 7 7 6 5 5 5 6 7 8 8 8 6 5 4 3 2 2 2 2 3 3 4 4 5 5 6 6 6 5 5 5 3 2 2 2 2 3 3 3 3 2 2 2 2 2 3 4 5 7 8 8 9 9 10 11 11 12 13 13 13 14 15 16 16 16 14
13 11 10 9 9 8 8 8 7 7 7 7 7 7 8 7 7 7 7 7 6 5 5 4 5 6 7 8 8 7 6 4 4 3 3 3 3 3 3 4 4 5 5 6 7 7 6 5 5 4 3 2 2 2 2 3 4 4 4 3 3 2 2 3 3 4 5 7 8 8 8 9 10 10 11 12 12 13 13 14 14 15 16 15 14
11 10 8 8 9 8 8 8 7 7 7 6 6 7 7 7 6 6 6 6 6 5 5 5 5 6 7 7 7 7 6 6 5 5 5 4 4 4 4 4 5 5 5 5 7 8 7 6 5 4 3 2 1 1 1 2 3 3 4 4 4 4 4 3 4 4 5 7 8 8 8 9 10 10 11 12 12 12 13 13 14 15 15 14 13
10 10 9 9 9 8 8 7 7 7 7 7 7 7 6 6 6 6 6 5 5 5 4 5 5 6 7 7 8 8 8 7 7 6 6 6 6 5 6 6 6 5 5 6 7 8 7 6 5 4 3 2 2 1 1 1 2 2 3 3 4 4 4 4 4 4 5 7 8 7 8 9 9 9 10 11 11 11 12 12 13 14 14 13 13
10 9 9 9 9 9 8 8 8 7 7 7 7 6 6 6 6 5 5 5 5 5 5 5 5 6 7 8 8 8 9 9 8 7 7 7 7 7 8 8 7 6 6 7 8 8 8 7 6 5 3 3 3 2 2 2 2 2 1 1 2 3 4 5 4 3 4 6 8 7 7 8 9 8 9 10 10 11 11 11 12 13 13 12 13
8 8 9 9 9 9 9 8 8 8 7 7 6 6 5 5 5 4 4 4 5 5 6 6 6 7 7 8 9 9 9 10 10 9 9 9 9 9 10 9 9 8 8 8 9 9 9 8 7 6 4 4 4 3 2 2 3 3 3 2 2 2 2 4 4 4 4 6 7 7 7 7 8 8 8 9 9 10 10 11 11 12 11 11 13
8 9 10 9 9 9 9 8 8 8 7 7 6 6 5 5 5 5 5 5 6 7 7 8 8 8 9 9 10 11 11 11 11 11 11 11 11 12 12 12 11 10 10 9 10 10 10 10 9 8 6 5 5 5 3 3 2 3 3 3 5 5 5 4 5 5 4 5 6 6 6 7 7 7 7 7 8 9 9 10 10 10 10 10 12
8 9 9 9 9 9 9 8 8 8 7 7 6 6 5 5 5 5 6 7 7 8 8 9 9 9 10 11 11 12 13 14 13 12 12 13 14 14 14 14 13 12 12 11 11 11 11 11 11 10 8 7 7 6 5 4 3 1 1 3 5 7 7 6 5 5 5 5 5 6 6 6 6 6 6 6 7 8 9 9 10 10 9 10 10
Wind_Direction
215 216 217 217 217 217 217 216 216 216 216 218 221 223 225 225 225 225 225 224 221 219 222 226 226 222 221 223 225 230 234 236 240 243 246 251 255 259 264 269 270 270 272 274 274 273 271 268 268 269 270 272 276 278 276 275 275 274 273 269 264 262 260 261 269 281 287 287 288 295 302 302 298 294 295 300 305 311 313 314 314 312 309 312 315
215 216 216 216 215 215 215 214 213 211 211 214 219 223 226 226 225 225 227 227 224 222 224 227 226 224 225 227 228 231 235 236 241 245 249 252 255 258 261 264 266 266 268 271 272 272 272 272 272 273 274 276 278 278 277 276 275 273 272 271 270 269 265 263 269 281 290 293 291 294 300 302 300 298 298 301 303 307 306 304 309 311 308 307 308
213 216 215 214 212 211 211 208 205 204 207 212 217 224 228 229 227 226 229 229 226 225 227 227 227 226 228 230 230 232 236 238 242 247 250 254 255 257 259 260 262 262 262 264 267 270 273 274 274 274 275 276 277 277 276 276 273 271 271 269 270 273 270 265 268 278 289 294 294 295 298 299 299 300 301 302 303 306 303 297 299 304 307 305 302
210 214 213 209 207 203 193 188 194 203 209 214 219 224 227 229 228 229 232 232 228 227 228 228 228 228 230 231 231 233 237 240 244 248 252 255 257 259 262 263 263 262 260 261 264 267 270 272 273 273 272 272 274 274 275 277 275 272 274 272 269 273 275 269 267 273 284 292 295 297 298 297 296 298 301 302 303 303 299 294 293 295 300 304 301
204 208 207 194 178 162 160 185 203 209 213 216 219 223 226 227 227 230 234 234 231 229 228 228 228 229 229 230 231 233 237 241 246 250 254 257 260 263 266 268 267 264 261 260 262 265 266 268 271 271 270 269 271 271 272 277 279 274 274 275 272 273 276 273 270 272 279 289 295 299 299 296 295 296 298 301 303 304 299 297 297 293 294 299 299
197 197 186 152 145 158 182 200 208 211 212 213 216 223 226 226 227 231 235 236 233 231 230 229 230 231 231 231 233 235 239 243 248 252 256 260 263 266 268 269 268 267 263 260 260 263 266 268 270 271 269 269 269 268 269 274 278 275 271 273 274 274 275 274 273 275 281 287 292 296 298 297 295 295 297 299 300 303 303 303 303 299 295 298 299
182 170 155 155 172 187 195 201 207 209 206 205 213 221 224 225 227 231 235 237 235 233 232 233 234 235 237 238 239 239 242 246 251 255 259 261 263 264 264 264 266 267 267 263 260 261 265 270 272 271 270 269 268 268 269 272 275 274 271 270 271 273 275 276 277 279 284 288 290 293 297 297 295 295 297 298 296 297 300 301 303 303 301 300 300
173 164 168 180 190 192 193 201 207 204 198 198 207 216 221 225 228 232 236 238 238 237 236 236 237 238 240 242 243 244 245 249 254 257 259 259 258 257 256 258 262 265 267 266 262 261 265 269 269 269 268 268 268 269 271 271 272 273 272 268 267 269 272 276 281 282 284 286 288 292 295 296 297 296 298 299 297 297 301 301 301 301 301 300 300
182 177 180 187 189 189 195 203 202 195 193 198 203 209 217 222 225 230 235 238 241 240 238 239 241 241 242 244 246 246 246 249 254 256 256 254 253 252 252 256 260 263 263 263 262 262 264 265 266 267 268 267 269 271 272 271 269 271 274 270 264 264 269 274 278 279 282 283 285 288 292 293 295 296 297 297 296 297 299 299 297 298 300 300 298
186 179 181 187 190 191 195 196 189 185 193 199 200 205 213 218 220 225 231 236 241 242 239 240 242 243 245 246 246 245 246 249 254 254 252 251 251 250 252 256 259 260 260 259 259 260 262 264 265 266 267 267 269 271 273 272 267 267 271 270 264 261 264 270 272 274 278 281 282 286 288 288 292 296 296 295 295 295 296 296 295 297 300 299 296
184 181 185 189 190 188 187 181 179 190 199 201 200 204 212 216 217 221 227 233 239 242 240 240 241 243 245 246 245 244 245 250 254 252 250 250 249 248 251 256 256 257 258 258 258 258 260 264 267 267 267 268 270 273 277 275 268 263 266 270 269 264 262 264 267 270 274 276 278 281 284 286 292 296 295 294 296 296 296 296 296 296 298 298 296
183 184 185 186 185 182 181 180 187 197 202 202 201 204 211 216 216 218 226 232 237 240 240 239 240 242 243 245 245 244 247 252 255 254 253 253 251 249 251 254 255 257 258 257 259 261 262 264 267 269 269 271 273 275 279 279 271 263 263 268 270 268 264 261 261 265 269 272 274 277 280 288 293 293 293 295 298 298 298 297 295 294 294 294 293
185 182 179 181 180 179 181 184 190 198 203 204 203 205 211 215 215 218 224 230 235 238 240 242 242 243 244 247 246 244 249 255 257 257 257 258 257 253 251 254 257 258 258 260 262 263 264 265 266 268 272 274 275 277 280 281 274 266 265 268 270 271 270 266 263 264 266 266 268 273 278 285 289 290 291 296 297 297 296 295 293 292 291 290 290
183 182 181 183 181 179 182 187 192 199 203 205 206 207 211 214 215 218 222 228 233 237 239 242 242 243 247 251 250 248 253 258 260 261 261 262 262 257 253 256 258 259 262 263 265 265 266 266 267 269 272 273 274 279 281 278 272 267 267 269 272 274 275 274 271 268 267 265 262 267 274 280 285 288 291 294 293 291 291 291 291 290 288 287 288
183 184 184 184 183 182 183 188 195 201 203 205 208 211 213 215 216 219 223 228 233 236 240 242 243 244 250 256 256 255 257 259 261 264 264 265 265 259 256 257 259 261 263 263 265 266 266 267 267 268 269 271 276 284 286 277 268 267 270 272 275 276 275 275 273 268 269 268 264 264 271 278 282 284 288 291 289 287 287 287 286 286 286 286 287
182 184 184 185 186 184 185 190 197 202 202 204 209 213 215 216 218 221 225 229 233 238 242 245 246 249 255 259 260 259 261 262 263 266 267 266 263 259 257 258 261 263 263 264 265 265 265 266 265 264 265 266 270 279 284 278 267 265 271 275 279 280 278 280 283 281 276 269 264 266 273 279 282 285 290 294 291 288 288 287 285 284 284 284 284
183 185 187 189 187 187 188 191 196 202 203 204 208 211 213 215 217 221 225 229 234 240 243 246 250 254 257 259 261 261 262 264 266 269 271 268 263 259 257 258 261 263 263 265 266 265 268 267 264 267 269 263 259 266 275 275 270 271 275 277 280 283 284 288 292 294 290 278 273 275 279 283 289 295 301 303 300 295 288 284 285 286 286 286 285
187 188 191 190 190 191 190 191 198 205 205 205 208 209 210 212 215 220 224 227 233 238 243 249 255 258 259 260 261 261 261 264 266 269 273 272 267 262 259 259 261 262 263 266 266 269 271 266 264 273 272 260 253 261 265 264 266 271 275 276 280 285 288 292 294 296 298 294 291 292 293 295 301 308 311 311 310 303 281 273 282 289 289 289 290
192 193 192 190 191 193 191 194 203 207 204 205 207 206 206 209 213 219 224 227 234 240 246 254 258 260 261 262 262 259 259 264 266 266 268 269 268 266 262 258 256 257 262 266 267 270 267 260 265 274 266 254 253 259 259 258 262 269 273 275 279 284 289 293 290 288 292 293 293 297 299 299 302 306 307 306 307 301 279 273 283 288 288 290 292
196 194 191 189 192 193 193 198 205 207 206 206 204 201 204 208 211 216 221 226 235 246 255 260 261 261 262 263 263 260 258 262 266 267 267 268 270 267 259 255 256 258 259 260 262 265 259 258 270 272 255 249 257 262 259 260 264 269 274 274 275 279 285 289 285 283 287 289 290 297 301 299 297 297 297 296 296 291 284 283 287 288 290 291 291
195 193 191 191 193 193 193 199 205 209 210 208 202 200 204 207 209 213 218 227 238 249 259 262 259 259 260 260 260 259 260 263 267 269 270 270 270 265 258 259 262 261 257 254 254 254 253 258 269 265 248 248 261 263 259 262 266 271 275 275 273 275 279 281 280 280 285 290 295 301 303 301 298 297 297 296 294 293 294 292 289 287 286 286 288
194 192 192 193 194 194 196 201 206 210 212 208 201 201 206 209 211 213 220 230 240 250 260 261 260 261 261 260 260 259 262 266 268 270 271 270 268 264 261 263 265 261 257 254 250 250 252 251 255 257 254 255 259 257 256 262 268 272 276 278 278 278 276 275 273 275 283 292 299 303 305 304 303 303 302 300 300 301 300 298 295 292 285 281 283
194 193 193 194 196 197 199 201 204 207 211 207 200 199 204 209 210 210 217 230 242 252 260 263 265 265 262 259 259 258 263 269 270 269 269 265 263 262 259 261 265 261 253 250 251 255 255 250 252 261 265 259 253 253 258 265 271 275 277 277 278 276 272 266 264 271 285 295 299 301 303 304 305 306 304 302 304 304 303 304 302 297 290 285 283
193 193 194 194 197 199 200 198 199 204 208 204 198 199 204 207 206 208 217 230 242 252 260 263 263 260 255 252 249 250 261 268 268 263 256 250 253 257 256 258 264 262 253 252 258 260 254 252 260 268 266 255 253 258 265 272 279 282 281 277 272 264 253 252 265 279 289 294 294 294 296 299 300 300 298 301 307 308 307 306 303 300 296 291 290
189 193 197 197 198 199 199 196 198 204 207 202 197 200 207 208 206 208 218 229 239 248 256 257 254 250 249 248 243 240 250 256 256 257 254 248 249 254 259 264 266 265 260 254 253 253 253 257 265 267 261 260 268 277 281 282 282 280 272 261 248 241 242 258 276 285 287 289 289 289 293 295 294 296 301 307 311 310 307 303 304 306 304 299 298
184 191 197 198 197 197 194 191 195 203 205 201 198 202 210 214 210 211 220 231 238 243 243 241 243 246 247 245 235 224 219 218 233 253 264 267 265 266 272 274 271 269 266 257 250 251 255 259 260 259 265 276 284 287 283 278 278 269 249 234 237 245 255 268 276 280 282 286 289 291 294 297 298 303 310 311 309 307 305 303 305 309 308 306 305
180 188 194 194 193 194 191 188 193 200 198 194 198 205 213 220 220 220 225 229 230 231 226 222 225 231 234 232 219 204 193 202 232 262 282 291 290 288 289 285 278 276 273 261 250 246 246 250 255 260 274 288 296 294 253 223 244 264 252 253 258 265 274 280 281 282 283 288 292 293 296 301 303 306 309 306 303 306 307 305 305 308 310 310 306
176 182 188 187 186 187 186 185 188 190 183 183 193 200 204 209 212 215 218 217 213 214 215 215 219 222 221 217 208 193 178 188 194 264 295 289 287 291 294 290 279 270 251 229 220 220 227 237 243 248 255 265 297 121 165 187 239 269 269 273 280 287 294 297 294 290 289 291 293 295 299 302 302 303 304 302 303 307 308 308 307 307 311 311 305
171 174 179 181 180 180 183 183 177 169 164 172 180 184 186 191 198 208 215 218 218 215 208 204 210 214 209 205 208 194 185 197 230 322 317 311 307 300 291 266 239 239 235 220 210 213 218 218 217 215 205 185 178 199 210 227 250 254 260 278 288 292 300 301 294 289 292 296 296 296 300 301 301 304 305 304 306 309 310 312 313 311 313 312 306
161 164 170 177 178 176 179 183 180 175 174 175 174 173 175 183 194 205 211 213 212 208 199 195 200 201 193 199 214 205 209 258 311 325 327 325 317 303 278 229 217 236 249 244 226 216 213 216 220 216 203 209 234 244 251 265 262 247 249 275 282 289 296 293 290 295 299 300 297 297 300 302 303 306 308 307 310 312 313 314 312 311 315 315 311
151 156 161 165 167 164 166 178 185 185 181 177 173 168 165 169 183 195 200 200 197 191 184 181 183 183 186 196 200 198 239 293 311 319 324 323 312 294 263 218 211 236 255 259 248 230 223 232 234 213 206 230 247 251 262 270 263 255 275 286 288 298 300 293 297 303 302 300 298 300 302 303 304 307 309 310 312 313 315 317 313 310 314 318 314
136 130 129 134 144 157 164 173 182 182 176 172 171 166 160 157 161 172 178 176 168 161 158 157 156 156 165 176 175 180 242 294 306 318 331 330 288 253 254 248 248 255 259 257 250 241 237 242 235 201 205 230 228 219 253 269 260 291 303 305 304 306 301 299 305 308 304 301 303 304 305 305 307 308 309 310 311 313 316 319 317 313 317 322 319
134 127 128 134 142 154 160 164 175 181 177 174 174 170 165 160 153 147 143 138 135 139 143 141 139 146 154 163 169 178 216 305 360 55 73 81 203 249 255 258 263 265 260 250 249 249 239 234 227 200 208 228 201 162 165 249 318 309 312 313 310 305 303 308 311 309 303 301 304 305 307 309 310 311 313 315 316 317 317 318 317 315 318 324 324
149 150 158 160 157 155 155 159 174 184 183 180 179 176 171 163 150 143 141 140 138 139 139 141 146 149 145 138 134 136 127 108 93 87 89 86 251 253 257 263 266 262 248 241 250 252 235 223 218 194 186 188 165 142 136 181 303 313 311 307 306 304 305 310 313 311 307 305 306 307 311 314 315 315 317 320 322 322 321 321 321 319 317 321 326
162 168 172 171 165 158 159 167 179 184 181 174 168 163 157 152 152 151 150 148 146 143 143 148 149 139 121 113 125 132 125 112 95 89 91 277 267 261 257 251 247 240 232 230 238 239 226 214 200 181 170 161 161 164 180 275 310 320 317 312 311 308 308 312 313 313 312 310 309 314 316 317 318 319 321 321 323 325 326 325 324 322 319 320 325
170 173 178 181 183 177 172 172 174 174 168 157 151 151 149 150 155 153 145 142 144 143 144 150 148 132 112 119 148 147 138 124 109 116 140 204 222 213 224 237 227 214 211 214 215 209 201 194 181 168 160 157 160 156 336 321 322 320 314 312 311 307 310 316 316 315 314 311 312 318 320 319 322 325 326 324 324 326 327 326 325 323 321 321 322
181 175 178 188 195 192 179 166 158 156 154 148 144 143 141 141 145 143 137 140 142 137 140 153 154 147 145 170 179 172 162 152 141 143 153 157 149 156 209 258 243 219 212 204 197 189 182 179 174 163 157 165 166 181 308 302 311 311 306 306 305 303 310 319 321 319 317 315 317 321 322 322 325 327 327 327 328 329 330 331 328 324 324 324 322
193 187 188 192 191 179 165 155 150 147 141 135 135 135 132 129 131 129 131 139 142 140 148 162 168 173 179 181 183 184 177 170 164 160 163 164 162 179 227 241 216 222 219 194 185 185 179 172 169 166 164 167 169 275 291 294 298 298 297 295 294 302 316 323 322 320 318 319 323 323 321 323 327 328 328 328 329 331 332 333 333 331 329 330 330
205 201 199 189 172 161 154 149 146 142 134 129 129 130 130 130 132 133 137 144 151 157 168 179 190 202 191 173 175 184 184 181 179 175 177 183 185 196 219 219 209 220 215 190 185 186 179 172 171 171 169 169 194 256 279 290 287 286 290 285 282 302 322 320 315 320 324 326 327 323 321 324 326 326 329 330 332 334 334 334 335 334 331 331 332
200 189 178 167 158 153 151 147 144 142 137 133 134 138 142 148 153 153 154 158 165 175 188 197 206 209 196 183 185 191 193 197 200 193 191 196 198 202 216 223 222 224 213 195 188 187 184 179 174 169 169 175 200 252 280 290 279 274 280 278 269 290 308 310 314 323 328 330 328 324 323 326 326 326 330 332 333 334 333 333 335 336 332 331 332
174 160 156 155 152 151 150 148 147 145 139 136 140 149 155 159 162 165 170 174 177 184 195 203 203 201 202 206 206 203 206 217 217 206 205 212 216 219 224 226 230 233 223 203 191 188 187 180 173 172 175 180 191 247 280 281 269 253 253 254 259 279 289 298 314 324 327 329 330 328 326 326 327 328 329 331 332 333 334 337 339 339 337 336 335
147 141 147 153 153 152 150 146 147 148 144 138 140 147 152 156 161 170 175 177 179 183 188 194 196 199 209 219 217 207 211 220 217 212 222 231 234 233 226 217 216 218 216 205 195 190 187 180 177 177 174 174 193 264 285 269 256 235 226 234 249 267 283 295 309 323 329 329 328 328 327 326 327 327 327 330 333 335 337 340 342 342 342 341 339
149 150 157 159 156 152 148 145 145 144 139 133 133 138 145 149 155 163 168 169 174 181 185 187 192 202 211 217 211 205 210 220 222 222 229 225 215 213 208 202 201 201 201 197 191 186 184 179 176 177 178 185 220 280 272 232 225 219 216 228 241 253 281 305 313 321 329 329 326 327 327 327 329 330 330 333 336 336 338 341 343 344 345 343 342
166 168 169 164 154 147 147 147 141 131 128 131 134 139 146 147 148 155 163 167 173 183 186 182 184 192 202 208 206 204 209 217 218 213 203 189 187 190 188 187 189 189 189 189 188 186 182 177 176 181 192 215 273 302 265 220 207 203 210 224 240 253 276 303 314 321 329 330 327 327 329 331 332 332 333 335 337 337 340 343 344 345 345 344 345
167 166 163 154 145 141 141 139 136 136 140 143 143 145 148 151 153 158 164 168 172 178 181 178 180 187 194 199 201 203 209 215 211 204 197 189 186 184 181 182 186 185 184 189 194 191 182 176 178 183 193 229 291 302 258 220 211 208 211 216 230 251 274 289 300 315 330 334 330 328 331 334 334 334 335 336 338 339 341 343 346 346 346 346 346
159 160 160 150 142 142 143 145 148 152 153 155 156 154 153 155 157 158 163 167 169 172 177 182 188 195 200 203 205 208 213 216 212 205 202 196 190 188 186 186 188 189 189 194 199 195 186 180 179 178 180 208 256 263 206 205 209 210 217 223 230 244 263 275 287 309 330 337 334 331 331 332 333 332 332 333 336 340 341 343 347 349 349 348 347
160 162 162 152 144 146 148 148 147 147 148 152 153 151 151 153 153 153 158 163 166 173 183 192 201 209 212 213 214 215 217 218 217 211 205 198 192 190 192 194 194 194 194 195 195 194 191 189 187 184 183 193 194 162 139 147 173 189 213 226 228 237 251 261 276 301 323 335 337 332 327 329 331 331 333 335 338 342 343 344 349 352 353 353 353
160 158 155 151 151 150 146 141 141 143 146 147 146 145 147 150 152 156 163 170 179 193 202 209 217 222 224 225 225 223 222 221 220 216 208 201 196 195 198 199 196 192 191 192 194 196 197 197 195 194 190 188 183 167 137 126 134 140 154 208 227 237 244 249 262 289 314 332 337 328 321 326 330 329 332 336 339 341 343 346 350 354 357 359 0
159 156 154 155 155 150 145 146 149 150 148 147 149 151 154 160 167 178 185 193 206 215 221 227 230 231 233 235 233 230 228 226 224 221 213 204 199 199 200 200 198 193 190 193 199 206 209 208 207 206 197 185 184 178 154 128 119 106 84 58 30 348 292 266 264 277 299 323 328 321 316 325 329 327 329 335 339 343 347 348 349 352 357 3 4
154 153 154 154 152 150 151 154 155 155 157 162 166 169 175 186 198 208 215 226 235 241 244 247 246 244 245 244 240 237 235 231 227 224 216 206 202 201 200 200 200 198 195 197 205 212 216 216 217 215 208 198 194 191 182 161 140 115 80 49 33 20 355 311 281 274 285 308 317 314 314 324 330 331 334 338 341 347 351 351 351 353 357 2 5
155 156 159 161 160 160 164 166 167 170 176 182 186 192 200 209 221 229 234 242 249 254 257 259 260 259 258 255 252 249 246 241 236 228 216 207 204 203 203 203 202 200 200 203 210 217 220 221 219 217 215 210 205 201 199 200 196 175 49 14 12 9 359 338 301 273 270 287 304 306 308 321 332 336 341 344 345 348 350 350 351 354 358 2 6